Regional Weather Roundup
Issued by NWS Kansas City/Pleasant Hill, MO

Home | Current Version | Previous Version | Graphics & Text | Print | Product List | Glossary Off
Versions: 1 2 3 4 5 6 7 8 9 10 11 12 13 14 15 16 17 18 19 20 21 22 23 24 25 26 27 28 29 30 31 32 33 34 35 36 37 38 39 40 41 42 43 44 45 46 47 48 49 50

000
ASUS43 KEAX 160110
RWREAX

WEATHER ROUNDUP FOR EASTERN KANSAS AND NORTHWEST MISSOURI
NATIONAL WEATHER SERVICE KANSAS CITY/PLEASANT HILL MO
800 PM CDT MON SEP 15 2014

KSZ040-057-103>105-MOZ028-029-037-043-160200-
...KANSAS CITY METROPOLITAN AREA...

CITY           SKY/WX    TMP DP  RH WIND       PRES   REMARKS
K.C. INTL      PTCLDY    58  52  80 NE9       30.21R
K.C. DOWNTOWN  CLOUDY    63  52  67 NE14      30.19R
LEES SUMMIT    CLOUDY    61  53  75 N14G23    30.19R
OLATHE - IXD   CLOUDY    62  54  74 N15       30.19R
OLATHE - OJC   CLOUDY    61  53  75 N14       30.18R
LAWRENCE       PTCLDY    61  53  75 N7        30.20R

$$

MOZ001>008-011>017-020>025-030>033-038>040-044>046-053-054-160200-
...NORTHERN AND CENTRAL MISSOURI...

CITY           SKY/WX    TMP DP  RH WIND       PRES   REMARKS
ST. JOSEPH     CLEAR     56  50  80 NE5       30.21S
MOSBY          PTCLDY    59  52  77 N7        30.21R
WHITEMAN AFB   CLOUDY    63  59  86 N15       30.16R
CLINTON        CLOUDY    66  63  88 CALM      30.16R
SEDALIA        CLOUDY    65  60  84 N13       30.16R
WARSAW         NOT AVBL
MARSHALL       CLOUDY    63  57  82 N14G20    30.19R
CHILLICOTHE      N/A     57  51  80 CALM      30.22R
KIRKSVILLE     CLOUDY    57  52  83 N9        30.20R

$$

MOZ041-047>049-056>058-063>065-088>090-097-160200-
...EASTERN AND SOUTHERN MISSOURI...

CITY           SKY/WX    TMP DP  RH WIND       PRES   REMARKS
ST. LOUIS INTL CLOUDY    65  62  90 N10       30.11R
SPIRIT OF STL  CLOUDY    64  62  93 N5        30.11R
COLUMBIA       CLOUDY    64  60  87 N6        30.15R
JEFFERSON CITY CLOUDY    66  59  78 N6        30.15R
MEXICO         CLOUDY    64  64 100 CALM      30.14S
HANNIBAL       CLOUDY    64  57  77 N10       30.16R
ROLLA          CLOUDY    66  62  87 N8        30.11R
LEBANON        CLOUDY    70  64  83 N10       30.13R
OSAGE BEACH    CLOUDY    66  61  82 N7        30.13R
SPRINGFIELD    CLOUDY    73  66  78 N14       30.11R
BRANSON        MOCLDY    73  66  78 SW5       30.11F
NEVADA         CLOUDY    66  61  82 NE7       30.16R
JOPLIN         CLOUDY    70  68  93 N5        30.13R
WEST PLAINS    PTCLDY    73  66  78 S5        30.10S

$$

IAZ060-094-KSZ022-034>040-054-083-096-NEZ052-066-093-160200-
...KANSAS...SOUTHEAST NEBRASKA AND IOWA...

CITY           SKY/WX    TMP DP  RH WIND       PRES   REMARKS
TOPEKA         CLEAR     61  53  75 N8        30.20R
MANHATTAN      CLEAR     62  52  69 NE8       30.20R
EMPORIA        CLOUDY    64  58  80 NE6       30.17R
CHANUTE        CLOUDY    69  60  73 N12G23    30.15R
WICHITA        MOCLDY    70  58  65 NE15      30.16R
OMAHA          PTCLDY    56  47  71 CALM      30.24S
LINCOLN        CLEAR     54  45  71 NE7       30.25S
FALLS CITY     CLEAR     57  49  74 N6        30.22R
LAMONI         CLOUDY    57  48  72 N9        30.21S
DES MOINES     PTCLDY    58  46  64 N6        30.22R

$$



USA.gov is the U.S. government's official web portal to all federal, state and local government web resources and services.